EHI
5 5 5 4 4 6 6 6 6 5 4 3 3 3 1 0 0 0 0 0 0 1 3 5 3 1 0 0 1 1 1 0 0 0 0 0 0 0 0 0 0 0 0
5 5 5 4 4 5 6 6 5 4 3 3 3 2 1 0 0 0 0 0 0 1 2 4 3 1 0 0 1 1 1 0 0 0 0 0 0 0 0 0 0 0 0
5 5 5 4 3 3 4 4 4 3 3 3 2 1 1 0 0 0 0 0 0 0 1 2 2 1 0 0 1 2 1 0 0 0 0 0 0 0 0 0 0 0 0
6 5 4 3 2 1 2 2 3 2 2 2 1 0 0 0 0 0 0 0 0 0 0 1 1 0 0 0 1 1 1 0 0 0 0 0 0 0 0 0 0 0 0
6 5 3 2 1 1 1 1 1 1 1 1 1 0 0 0 0 0 0 0 0 0 0 1 1 0 0 0 0 0 0 0 0 0 0 0 0 0 0 0 0 0 0
6 5 2 1 1 1 0 0 0 0 0 0 0 0 0 0 0 0 0 0 0 0 0 0 1 0 0 0 0 0 0 0 0 0 0 0 0 0 0 0 0 0 0
5 4 3 2 2 1 1 0 1 1 0 0 0 0 0 0 0 0 0 0 0 0 0 0 0 0 0 0 0 0 0 0 0 0 0 0 0 0 0 0 0 0 0
5 4 4 3 2 2 2 2 2 2 1 0 0 0 0 0 0 0 0 0 0 0 0 0 0 0 0 1 0 0 0 0 0 0 0 0 0 0 0 0 0 0 0
4 4 4 4 3 3 3 3 4 3 2 1 0 0 0 0 0 0 0 0 0 0 0 0 0 0 0 0 0 0 0 0 0 0 0 0 0 0 0 0 0 0 0
1 2 3 4 3 2 2 3 3 3 3 2 1 1 0 0 0 0 0 0 0 0 0 0 0 0 0 0 0 0 0 0 0 0 0 0 0 0 0 0 0 0 0
1 1 2 3 2 1 1 1 2 3 3 3 3 2 1 0 0 0 0 0 0 0 0 0 0 0 0 0 0 0 0 0 0 0 0 0 0 1 1 1 0 0 0
1 2 3 3 3 2 1 1 1 2 3 3 3 3 2 1 0 0 0 0 0 0 0 0 0 0 0 0 0 0 0 0 0 0 0 0 0 1 2 2 1 0 0
3 4 4 4 3 3 3 2 2 2 3 3 3 3 3 2 0 0 0 0 0 0 0 0 0 0 0 0 0 0 0 0 0 0 0 0 0 1 1 1 1 0 0
4 5 5 5 4 3 3 3 3 3 3 3 3 3 3 1 0 1 1 1 1 0 0 0 0 0 0 0 0 0 0 0 0 0 0 0 0 0 0 0 0 0 0
4 5 5 4 4 4 3 3 3 3 3 3 3 3 2 1 1 2 2 2 2 1 0 0 0 0 0 0 0 0 0 0 0 0 0 0 0 0 0 0 0 0 0
5 5 5 4 4 4 4 3 3 3 3 3 3 3 2 1 1 2 2 2 2 1 0 0 0 0 0 0 0 0 0 0 0 0 0 0 0 0 0 0 0 0 0
5 5 5 5 5 4 3 3 3 3 3 3 2 2 1 0 1 1 1 1 1 1 0 0 0 0 0 0 0 0 0 0 0 0 0 0 0 0 0 0 0 0 0
7 6 6 6 4 3 3 3 3 3 3 1 1 1 0 0 0 0 0 0 0 0 0 0 0 0 0 0 0 0 0 0 0 0 0 0 0 0 0 0 0 0 0
9 8 6 5 4 3 3 3 3 2 2 1 0 0 0 0 0 0 0 0 0 0 0 0 0 0 0 0 0 0 0 0 0 0 0 0 0 0 0 0 0 0 0
7 7 6 4 3 2 2 2 1 1 1 0 0 0 0 0 0 0 0 0 0 0 0 0 0 0 0 0 0 0 0 0 0 0 0 0 0 0 0 0 0 0 0
3 4 4 3 2 1 1 1 0 0 0 0 0 0 0 0 0 0 0 0 0 0 0 0 0 0 0 0 0 0 0 0 0 0 0 0 0 0 0 0 0 0 0
2 3 4 3 3 2 1 0 0 0 0 0 0 0 0 0 0 0 0 0 0 0 0 0 0 0 0 0 0 0 0 0 0 0 0 0 0 0 0 0 0 0 0
3 3 3 3 2 2 1 0 0 0 0 0 0 0 0 0 0 0 0 0 0 0 0 0 0 0 0 0 0 0 0 0 0 0 0 0 0 0 0 0 0 0 0
3 2 2 2 1 1 0 0 0 0 0 0 0 0 0 0 0 0 0 0 0 0 0 0 0 0 0 0 0 0 0 0 0 0 0 0 0 0 0 0 0 0 0
2 1 1 1 1 0 0 0 0 0 0 0 0 0 0 0 0 0 0 0 0 0 0 0 0 0 0 0 0 0 0 0 0 0 0 0 0 0 0 0 0 0 0
2 1 0 1 1 0 0 0 0 0 0 0 0 0 0 0 0 0 0 0 0 0 0 0 0 0 0 0 0 0 0 0 0 0 0 0 0 0 0 0 0 0 0
Wind_Speed
1 1 0 0 0 1 1 1 1 2 1 1 1 2 2 2 2 2 1 4 5 6 7 8 8 9 10 10 9 8 8 8 8 8 7 7 7 7 7 6 6 6 5
2 1 1 1 0 0 1 1 2 2 1 1 1 1 2 2 2 2 2 2 4 5 5 6 7 8 9 9 9 9 8 8 7 8 8 7 7 6 6 6 6 6 6
2 2 1 1 0 1 1 1 1 1 1 1 1 1 1 2 2 2 2 1 1 3 4 5 6 7 8 9 9 9 8 8 7 7 8 7 7 7 7 7 6 6 6
2 2 1 1 1 2 1 1 1 1 0 0 1 1 1 1 2 2 2 2 1 2 3 5 5 6 7 8 9 9 9 9 8 8 8 8 7 7 7 7 7 6 6
2 2 1 1 2 2 1 1 1 1 1 0 1 0 0 1 1 2 2 2 2 2 2 3 5 6 7 8 9 9 9 9 9 9 9 9 8 7 7 7 7 6 6
2 2 1 1 2 2 1 1 1 1 1 1 0 0 0 0 1 1 2 2 2 2 2 2 3 4 7 8 8 9 9 9 10 10 10 10 9 8 8 8 8 7 7
2 2 2 1 2 2 2 2 2 1 1 1 1 1 1 0 0 1 1 1 2 2 2 3 2 2 3 7 8 9 9 9 10 10 10 9 9 8 8 8 8 8 8
2 2 2 2 2 2 2 2 2 2 1 1 1 1 1 2 1 0 0 1 2 1 2 3 3 3 3 2 4 8 8 9 9 9 9 8 8 8 8 9 9 9 8
2 1 2 2 2 2 2 2 2 3 2 1 1 2 1 1 1 1 1 0 0 1 2 2 3 3 3 3 3 6 7 7 8 8 7 7 8 9 9 9 9 9 9
1 2 2 2 2 2 2 2 2 2 2 2 1 1 1 2 1 1 1 1 1 1 1 2 2 3 3 3 4 5 6 5 6 7 7 7 7 8 9 9 9 9 9
1 1 2 2 2 2 2 2 2 2 2 2 2 1 1 1 1 1 1 1 1 1 1 2 2 2 3 3 3 5 5 5 6 7 7 7 7 7 8 8 8 9 9
0 1 2 2 2 2 2 2 2 3 2 2 2 2 2 2 2 2 2 2 2 2 1 1 2 2 2 3 4 5 5 6 6 6 6 6 7 7 7 7 8 9 9
0 1 1 1 1 1 2 2 2 2 3 3 3 2 2 2 2 2 2 1 1 1 1 1 2 2 2 2 3 5 5 6 6 6 6 6 6 6 7 7 7 7 8
2 1 1 1 1 1 2 2 1 2 2 3 3 3 2 2 2 2 3 2 1 1 1 2 1 2 2 2 3 4 4 5 5 5 6 6 6 6 6 6 7 7 7
2 1 1 1 1 1 1 2 1 2 2 2 2 3 2 2 2 2 2 2 3 2 2 2 2 2 2 2 2 3 3 4 5 5 5 6 6 6 6 6 6 6 7
1 1 1 1 1 1 1 2 1 1 2 2 2 2 2 2 2 2 2 2 2 3 3 2 2 2 2 2 2 2 3 4 5 6 6 6 6 6 7 7 7 7 7
2 2 2 2 2 1 1 1 2 2 2 2 2 2 2 2 2 2 2 2 2 3 3 2 2 2 2 2 2 2 3 3 3 6 6 7 7 7 7 7 7 7 8
2 3 2 2 2 2 2 2 2 2 2 2 2 2 2 2 2 2 2 2 2 3 3 3 2 2 2 2 2 2 2 3 3 5 6 7 7 7 8 8 8 8 8
2 2 2 2 2 2 2 2 2 2 2 2 2 2 2 2 2 2 2 2 2 2 2 2 2 1 1 1 1 2 2 2 3 4 5 6 7 7 7 8 8 8 8
2 2 2 3 3 2 2 2 2 2 2 2 2 3 3 3 3 3 3 3 2 2 2 2 2 2 1 1 1 1 2 2 3 3 3 3 5 6 7 7 8 8 8
3 2 2 2 2 2 2 2 2 2 2 1 1 2 2 3 4 4 3 3 3 3 2 2 2 2 2 1 2 2 2 3 3 2 2 3 3 3 4 6 7 7 8
2 2 2 2 2 1 2 3 2 2 2 2 2 2 2 3 3 3 4 4 5 4 4 3 3 3 4 3 3 2 2 2 3 1 2 3 2 3 3 3 5 6 7
2 2 2 2 2 2 2 2 3 2 2 2 2 2 2 2 3 2 2 3 3 4 5 5 5 5 5 4 4 4 3 3 4 2 2 3 2 3 3 3 6 7 7
2 2 2 2 2 2 3 3 3 2 2 2 3 3 3 3 3 3 3 3 3 4 5 5 5 6 6 5 5 5 4 3 3 3 3 3 2 3 3 3 5 7 7
2 2 2 2 2 2 2 3 3 2 2 3 3 3 3 3 3 3 3 3 3 3 4 5 6 6 6 6 5 3 3 2 3 2 2 3 2 3 3 3 4 6 7
2 2 1 1 2 2 2 2 3 2 2 2 2 2 2 3 3 2 3 3 4 4 3 3 3 3 3 3 5 5 4 3 2 2 2 3 2 2 3 2 2 3 4
Wind_Direction
152 138 126 97 118 132 139 131 132 128 132 145 150 153 172 184 179 173 189 196 192 186 184 185 189 192 188 184 183 179 178 177 176 175 175 178 179 180 182 184 184 182 182
158 146 136 107 98 127 136 140 141 139 140 138 164 176 185 184 179 168 176 198 199 189 186 188 192 194 192 189 187 185 184 182 182 183 184 184 184 183 185 187 191 190 193
159 153 137 124 139 123 112 99 104 120 141 153 170 177 175 176 179 177 178 180 208 206 204 197 195 194 196 196 193 191 188 183 185 188 189 189 188 191 193 193 196 197 197
154 144 137 152 138 128 129 135 131 111 92 149 167 201 192 183 197 186 175 184 193 214 214 203 197 200 203 205 201 199 196 193 195 197 197 197 198 200 202 203 207 206 205
155 146 150 156 127 128 146 174 131 150 168 187 176 150 182 197 211 198 195 196 197 197 205 210 208 211 211 211 211 210 207 205 205 206 207 206 205 205 206 207 210 211 214
157 149 150 150 130 131 142 158 154 141 145 170 137 50 346 235 195 209 208 199 201 203 205 212 208 219 219 218 219 217 215 212 213 213 214 213 212 211 211 213 214 216 218
161 158 167 159 153 151 160 161 163 143 108 106 82 4 351 12 175 215 191 197 215 207 198 202 200 206 223 224 224 224 223 220 219 218 218 216 214 213 215 220 221 221 222
177 179 169 170 170 154 146 157 153 153 138 126 125 91 358 353 354 341 186 210 226 199 204 211 206 202 212 219 226 225 228 228 228 225 221 218 217 217 222 226 229 227 224
174 179 176 171 170 165 174 182 173 164 172 166 143 151 152 234 315 342 333 287 251 202 220 216 214 212 212 216 226 231 230 230 232 230 227 226 223 223 225 229 232 229 226
178 183 177 172 172 173 176 187 172 170 164 183 179 157 154 153 160 319 326 314 273 234 238 237 228 223 221 216 218 222 228 230 233 236 235 235 229 227 228 230 232 231 229
165 172 173 166 164 172 175 171 163 171 173 177 177 160 145 116 146 173 259 299 305 272 249 237 239 238 231 222 223 228 229 226 231 236 238 239 236 233 232 231 233 233 233
101 178 166 165 172 174 174 179 177 180 191 185 184 172 165 167 183 178 210 242 261 271 265 245 236 238 234 231 235 235 231 229 230 233 236 237 238 235 236 237 239 241 243
241 249 183 177 184 193 187 178 176 190 191 190 197 199 195 199 177 168 177 213 244 277 283 256 241 240 242 239 244 240 236 234 231 231 232 233 238 239 239 240 241 244 248
219 217 190 190 195 195 191 174 178 195 188 201 207 203 201 211 189 182 177 171 214 278 274 270 270 247 249 244 253 240 242 235 229 230 231 232 234 236 238 239 241 245 249
200 175 172 191 223 203 191 173 190 202 192 202 209 205 206 209 197 198 184 179 181 224 259 257 258 265 260 246 254 240 245 240 230 228 231 232 233 235 236 237 241 247 251
195 182 187 191 207 213 193 177 193 202 186 206 199 195 209 211 198 193 190 190 192 198 235 246 243 268 265 261 250 245 252 252 236 234 234 237 237 238 238 237 239 244 248
188 204 210 199 200 202 192 176 198 194 198 212 209 200 211 198 194 198 187 186 197 195 225 255 246 260 245 263 279 262 258 246 245 241 240 240 240 241 241 239 239 243 245
198 213 212 213 214 204 191 190 206 206 205 211 216 207 219 199 199 208 198 202 206 204 209 242 257 259 253 263 269 268 273 263 254 251 242 242 243 243 244 244 243 242 244
199 217 202 214 229 219 204 201 194 198 204 212 220 218 227 205 214 218 211 212 214 205 202 220 249 250 253 273 282 281 286 282 272 259 245 246 248 251 252 251 248 243 242
193 206 209 218 223 217 210 208 190 191 198 199 217 230 229 218 222 222 219 213 200 197 200 215 241 254 251 264 256 277 293 292 291 280 264 261 256 256 256 254 250 244 240
204 211 214 218 212 205 212 199 192 191 182 191 219 239 243 239 230 222 219 211 199 203 207 218 237 242 245 248 251 242 265 290 282 260 267 270 264 263 258 251 245 240 238
200 204 209 209 204 220 201 190 181 178 186 196 228 253 251 239 242 228 222 212 201 205 214 221 235 242 246 241 239 240 248 275 279 243 252 276 261 264 262 251 242 240 241
196 205 198 186 202 224 196 186 184 180 201 214 226 243 258 253 240 237 240 241 232 231 216 214 230 238 239 231 231 244 243 245 254 263 248 268 264 271 270 258 243 242 240
186 194 198 197 195 220 201 200 197 194 212 233 237 237 243 265 256 236 233 247 255 252 239 231 235 244 245 241 228 233 241 252 269 259 220 253 266 270 278 271 250 242 242
180 185 189 191 197 238 219 207 188 188 217 246 253 247 236 252 263 238 216 240 264 272 260 250 255 260 261 253 232 208 209 223 263 262 211 232 258 281 278 265 255 242 245
184 172 175 194 212 235 231 211 190 187 215 247 271 278 260 260 266 229 217 226 252 267 280 293 292 292 278 257 225 215 214 220 240 255 211 211 246 266 277 260 264 263 256